Torna al catalogo

STARLINK-33837

AttivoComunicazioniVLEO
NORAD 63501·PAYLOAD·🇺🇸 United States

Lanciato Apr 7, 2025 da Vandenberg Space Force Base

Loading…

Prossimi Passaggi (prossime 24 ore)

TLE

AggiornatoSource: CelesTrak SupGP

Epoca: Sep 14, 2026, 21:10 UTC

1 63501C 25071J   26257.88243056 -.00017579  00000+0 -56557-3 0  2576
2 63501  53.1594 340.2289 0001258  78.7825 117.0829 15.31694838    12

Traccia STARLINK-33837 in tempo reale con AllMySat

Download on the App Store